TimeCST,TemperatureF,Dew PointF,Humidity,Sea Level PressureIn,VisibilityMPH,Wind Direction,Wind SpeedMPH,Gust SpeedMPH,PrecipitationIn,Events,Conditions,WindDirDegrees,DateUTC
12:15 AM,24.8,21.2,86,30.37,10.0,Calm,Calm,-,N/A,,Clear,0,2012-11-15 06:15:00
12:35 AM,24.8,19.4,80,30.37,10.0,Calm,Calm,-,N/A,,Clear,0,2012-11-15 06:35:00
12:55 AM,23.0,19.4,86,30.37,10.0,NNE,3.5,-,N/A,,Clear,20,2012-11-15 06:55:00
1:15 AM,24.8,21.2,86,30.36,9.0,NNE,3.5,-,N/A,,Clear,30,2012-11-15 07:15:00
1:35 AM,24.8,24.8,100,30.36,9.0,Calm,Calm,-,N/A,,Clear,0,2012-11-15 07:35:00
1:55 AM,23.0,21.2,93,30.36,8.0,Calm,Calm,-,N/A,,Clear,0,2012-11-15 07:55:00
2:15 AM,23.0,19.4,86,30.36,8.0,Calm,Calm,-,N/A,,Clear,0,2012-11-15 08:15:00
2:35 AM,23.0,19.4,86,30.36,8.0,Calm,Calm,-,N/A,,Clear,0,2012-11-15 08:35:00
2:55 AM,23.0,19.4,86,30.36,7.0,Calm,Calm,-,N/A,,Clear,0,2012-11-15 08:55:00
3:15 AM,23.0,19.4,86,30.36,7.0,Calm,Calm,-,N/A,,Clear,0,2012-11-15 09:15:00
3:35 AM,23.0,19.4,86,30.36,8.0,Calm,Calm,-,N/A,,Clear,0,2012-11-15 09:35:00
3:55 AM,21.2,19.4,93,30.35,7.0,Calm,Calm,-,N/A,,Clear,0,2012-11-15 09:55:00
4:15 AM,21.2,19.4,93,30.36,7.0,Calm,Calm,-,N/A,,Clear,0,2012-11-15 10:15:00
4:35 AM,21.2,19.4,93,30.36,7.0,Calm,Calm,-,N/A,,Clear,0,2012-11-15 10:35:00
4:55 AM,23.0,19.4,86,30.37,8.0,Calm,Calm,-,N/A,,Clear,0,2012-11-15 10:55:00
5:15 AM,21.2,19.4,93,30.36,8.0,Calm,Calm,-,N/A,,Clear,0,2012-11-15 11:15:00
5:35 AM,24.8,21.2,86,30.37,5.0,Calm,Calm,-,N/A,,Clear,0,2012-11-15 11:35:00
5:55 AM,21.2,19.4,93,30.37,6.0,Calm,Calm,-,N/A,,Clear,0,2012-11-15 11:55:00
6:15 AM,23.0,19.4,86,30.37,6.0,Calm,Calm,-,N/A,,Clear,0,2012-11-15 12:15:00
6:35 AM,21.2,19.4,93,30.37,5.0,Calm,Calm,-,N/A,,Clear,0,2012-11-15 12:35:00
6:55 AM,23.0,21.2,93,30.38,5.0,Calm,Calm,-,N/A,,Clear,0,2012-11-15 12:55:00
7:15 AM,26.6,23.0,86,30.38,5.0,Calm,Calm,-,N/A,,Clear,0,2012-11-15 13:15:00
7:35 AM,28.4,26.6,93,30.39,5.0,Calm,Calm,-,N/A,,Clear,0,2012-11-15 13:35:00
7:55 AM,30.2,26.6,86,30.40,7.0,North,3.5,-,N/A,,Clear,10,2012-11-15 13:55:00
8:15 AM,30.2,26.6,86,30.41,7.0,Calm,Calm,-,N/A,,Clear,0,2012-11-15 14:15:00
8:35 AM,33.8,28.4,81,30.41,8.0,NNE,3.5,-,N/A,,Clear,20,2012-11-15 14:35:00
8:55 AM,33.8,28.4,81,30.42,8.0,Calm,Calm,-,N/A,,Clear,0,2012-11-15 14:55:00
9:15 AM,35.6,28.4,75,30.42,9.0,Calm,Calm,-,N/A,,Clear,0,2012-11-15 15:15:00
9:35 AM,39.2,30.2,70,30.42,10.0,Calm,Calm,-,N/A,,Clear,0,2012-11-15 15:35:00
10:15 AM,41.0,30.2,65,30.42,10.0,SSW,3.5,-,N/A,,Clear,200,2012-11-15 16:15:00
10:35 AM,42.8,32.0,66,30.42,10.0,NNW,3.5,-,N/A,,Clear,330,2012-11-15 16:35:00
10:55 AM,44.6,30.2,57,30.41,10.0,Calm,Calm,-,N/A,,Clear,0,2012-11-15 16:55:00
11:15 AM,44.6,30.2,57,30.40,10.0,Calm,Calm,-,N/A,,Clear,0,2012-11-15 17:15:00
11:35 AM,46.4,30.2,53,30.40,10.0,Calm,Calm,-,N/A,,Clear,0,2012-11-15 17:35:00
11:55 AM,46.4,28.4,50,30.39,10.0,Calm,Calm,-,N/A,,Clear,0,2012-11-15 17:55:00
12:15 PM,46.4,30.2,53,30.38,10.0,Calm,Calm,-,N/A,,Clear,0,2012-11-15 18:15:00
12:35 PM,46.4,28.4,50,30.37,10.0,Calm,Calm,-,N/A,,Clear,0,2012-11-15 18:35:00
12:55 PM,48.2,30.2,50,30.36,10.0,Calm,Calm,-,N/A,,Clear,0,2012-11-15 18:55:00
1:15 PM,48.2,30.2,50,30.36,10.0,Calm,Calm,-,N/A,,Clear,0,2012-11-15 19:15:00
1:35 PM,48.2,30.2,50,30.36,10.0,Calm,Calm,-,N/A,,Clear,0,2012-11-15 19:35:00
1:55 PM,50.0,32.0,50,30.36,10.0,WSW,3.5,-,N/A,,Clear,240,2012-11-15 19:55:00
2:15 PM,50.0,28.4,43,30.35,10.0,Calm,Calm,-,N/A,,Clear,0,2012-11-15 20:15:00
2:35 PM,50.0,30.2,47,30.35,10.0,Calm,Calm,-,N/A,,Clear,0,2012-11-15 20:35:00
2:55 PM,51.8,30.2,44,30.34,10.0,Calm,Calm,-,N/A,,Clear,0,2012-11-15 20:55:00
3:15 PM,50.0,28.4,43,30.35,10.0,Calm,Calm,-,N/A,,Clear,0,2012-11-15 21:15:00
3:35 PM,50.0,28.4,43,30.35,10.0,Calm,Calm,-,N/A,,Clear,0,2012-11-15 21:35:00
3:55 PM,48.2,28.4,46,30.35,10.0,Calm,Calm,-,N/A,,Clear,0,2012-11-15 21:55:00
4:15 PM,48.2,26.6,43,30.35,10.0,Calm,Calm,-,N/A,,Clear,0,2012-11-15 22:15:00
4:35 PM,46.4,26.6,46,30.36,10.0,Calm,Calm,-,N/A,,Clear,0,2012-11-15 22:35:00
5:35 PM,39.2,28.4,65,30.37,10.0,Calm,Calm,-,N/A,,Clear,0,2012-11-15 23:35:00
5:55 PM,37.4,28.4,70,30.37,10.0,Calm,Calm,-,N/A,,Clear,0,2012-11-15 23:55:00
6:15 PM,37.4,30.2,75,30.37,10.0,Calm,Calm,-,N/A,,Clear,0,2012-11-16 00:15:00
6:35 PM,35.6,28.4,75,30.37,10.0,Calm,Calm,-,N/A,,Clear,0,2012-11-16 00:35:00
7:15 PM,33.8,28.4,81,30.37,10.0,Calm,Calm,-,N/A,,Clear,0,2012-11-16 01:15:00
7:35 PM,32.0,28.4,87,30.37,10.0,Calm,Calm,-,N/A,,Clear,0,2012-11-16 01:35:00
8:15 PM,30.2,24.8,80,30.38,10.0,Calm,Calm,-,N/A,,Clear,0,2012-11-16 02:15:00
8:35 PM,30.2,26.6,86,30.38,9.0,Calm,Calm,-,N/A,,Clear,0,2012-11-16 02:35:00
8:55 PM,32.0,30.2,93,30.39,10.0,Calm,Calm,-,N/A,,Clear,0,2012-11-16 02:55:00
9:15 PM,30.2,26.6,86,30.39,10.0,Calm,Calm,-,N/A,,Clear,0,2012-11-16 03:15:00
9:55 PM,30.2,28.4,93,30.39,10.0,Calm,Calm,-,N/A,,Clear,0,2012-11-16 03:55:00
10:15 PM,32.0,28.4,87,30.39,10.0,Calm,Calm,-,N/A,,Clear,0,2012-11-16 04:15:00
10:35 PM,30.2,28.4,93,30.39,10.0,Calm,Calm,-,N/A,,Clear,0,2012-11-16 04:35:00
10:55 PM,30.2,28.4,93,30.39,8.0,Calm,Calm,-,N/A,,Clear,0,2012-11-16 04:55:00
11:15 PM,30.2,26.6,86,30.39,9.0,Calm,Calm,-,N/A,,Clear,0,2012-11-16 05:15:00
11:35 PM,30.2,26.6,86,30.40,10.0,Calm,Calm,-,N/A,,Clear,0,2012-11-16 05:35:00
11:55 PM,28.4,26.6,93,30.40,10.0,Calm,Calm,-,N/A,,Clear,0,2012-11-16 05:55:00